FW8688 Weather Reports


Display with metric or nautical units.
time (UTC)temp
F
wind
direction
speed
MPH
gust
MPH
rain 1hr
in
rain 24hr
in
rain mn
in
humidity
%
barometer
mb
20260831082306 62 80 0.0 0.0 0.00 0.10 0.00 76 1014.1
20260831081805 62 80 0.0 0.0 0.00 0.10 0.00 75 1014.1
20260831081305 62 80 0.0 0.0 0.00 0.10 0.00 75 1014.1
20260831080805 62 80 0.0 0.0 0.00 0.10 0.00 73 1014.1
20260831080305 62 80 0.0 0.0 0.00 0.10 0.00 72 1014.4
20260831075805 63 80 0.0 0.0 0.00 0.10 0.00 72 1014.5
20260831075306 63 80 1.0 3.0 0.00 0.10 0.00 72 1014.5
20260831074804 63 80 2.0 3.0 0.00 0.10 0.00 72 1014.5
20260831074305 63 108 0.0 3.0 0.00 0.10 0.00 72 1014.5
20260831073805 63 118 1.0 3.0 0.00 0.10 0.00 72 1014.5
20260831073305 63 114 1.0 2.0 0.00 0.10 0.00 72 1014.5
20260831072804 63 101 0.0 2.0 0.00 0.10 0.00 73 1014.7
20260831072306 63 65 0.0 0.0 0.00 0.10 0.00 73 1014.7
20260831071805 63 65 0.0 0.0 0.00 0.10 0.00 74 1014.7
20260831071306 63 65 0.0 0.0 0.00 0.10 0.00 73 1014.7
20260831070804 64 65 0.0 0.0 0.00 0.10 0.00 73 1014.6
20260831065805 64 65 1.0 3.0 0.00 0.10 0.00 73 1014.5
20260831064305 64 65 0.0 0.0 0.00 0.10 0.00 73 1014.4
20260831063805 64 65 0.0 0.0 0.00 0.11 0.00 72 1014.4
20260831063305 64 65 0.0 0.0 0.00 0.11 0.00 73 1014.4
20260831062805 64 65 0.0 0.0 0.00 0.11 0.00 73 1014.4
20260831062306 64 65 0.0 2.0 0.00 0.11 0.00 73 1014.4
20260831061804 64 65 1.0 2.0 0.00 0.11 0.00 73 1014.3
20260831061305 64 65 0.0 2.0 0.00 0.11 0.00 73 1014.2
20260831060804 64 65 0.0 1.0 0.00 0.11 0.00 73 1014.5
20260831055804 65 65 2.0 3.0 0.00 0.11 0.11 73 1014.5
20260831055306 65 65 1.0 3.0 0.00 0.11 0.11 73 1014.5
20260831054805 65 65 2.0 3.0 0.00 0.11 0.11 74 1014.5
20260831054304 65 74 2.0 3.0 0.00 0.11 0.11 74 1014.5
20260831053805 65 74 2.0 3.0 0.00 0.11 0.11 74 1014.5
20260831053304 65 74 1.0 3.0 0.00 0.11 0.11 74 1014.4
20260831052804 65 74 2.0 3.0 0.00 0.11 0.11 74 1014.6
20260831051805 65 74 0.0 0.0 0.00 0.11 0.11 74 1014.7
20260831051305 65 74 0.0 0.0 0.00 0.11 0.11 74 1014.6
20260831050805 65 74 0.0 0.0 0.00 0.11 0.11 74 1014.7
20260831045804 66 74 2.0 3.0 0.00 0.12 0.11 74 1014.7
20260831045306 66 83 0.0 0.0 0.00 0.12 0.11 74 1014.7
20260831044804 66 124 0.0 1.0 0.00 0.13 0.11 74 1014.5
20260831044305 66 124 0.0 2.0 0.00 0.14 0.11 74 1014.5
20260831043805 66 124 0.0 2.0 0.00 0.15 0.11 74 1014.5
20260831043305 66 124 1.0 2.0 0.00 0.15 0.11 74 1014.3
20260831042805 66 124 2.0 2.0 0.00 0.15 0.11 73 1014.2
20260831042306 67 124 1.0 3.0 0.00 0.15 0.11 73 1014.4
20260831041804 67 151 2.0 3.0 0.00 0.15 0.11 72 1014.4
20260831040805 67 67 0.0 1.0 0.00 0.15 0.11 71 1014.1
20260831035805 68 30 0.0 0.0 0.00 0.15 0.11 70 1013.9
20260831034805 68 339 0.0 0.0 0.00 0.16 0.11 70 1013.9
20260831034304 68 339 0.0 0.0 0.00 0.16 0.11 70 1013.9
20260831033804 68 339 0.0 2.0 0.00 0.16 0.11 70 1013.9
20260831033304 68 339 2.0 3.0 0.00 0.17 0.11 70 1013.9
20260831032306 68 66 0.0 0.0 0.00 0.18 0.11 70 1013.9
20260831031804 68 66 0.0 1.0 0.00 0.18 0.11 70 1013.9
20260831031304 69 66 0.0 1.0 0.00 0.18 0.11 70 1013.9
20260831030805 69 66 0.0 0.0 0.00 0.18 0.11 69 1013.8
20260831030304 69 66 0.0 0.0 0.00 0.18 0.11 69 1013.8
20260831025805 69 66 0.0 0.0 0.00 0.18 0.11 68 1013.7
20260831025306 69 66 0.0 0.0 0.00 0.18 0.11 68 1013.6
20260831024305 69 66 0.0 0.0 0.00 0.18 0.11 68 1013.6
20260831023804 69 66 0.0 3.0 0.00 0.18 0.11 68 1013.6
20260831023305 69 66 2.0 3.0 0.00 0.18 0.11 68 1013.6
20260831022804 69 66 0.0 3.0 0.00 0.18 0.11 68 1013.6
20260831022306 69 66 0.0 2.0 0.00 0.18 0.11 68 1013.6
20260831021805 70 66 2.0 3.0 0.00 0.18 0.11 67 1013.6
20260831021304 70 74 2.0 3.0 0.00 0.18 0.11 67 1013.6
20260831020804 70 59 2.0 3.0 0.00 0.18 0.11 66 1013.0
20260831020305 71 95 1.0 3.0 0.00 0.18 0.11 66 1013.0
20260831015805 71 96 1.0 3.0 0.00 0.18 0.11 65 1013.0
20260831014804 71 130 1.0 3.0 0.00 0.18 0.11 64 1013.1
20260831013805 72 134 2.0 6.0 0.00 0.18 0.11 64 1013.1
20260831013304 72 169 2.0 5.0 0.00 0.18 0.11 64 1013.1
20260831012306 73 143 3.0 7.0 0.00 0.19 0.11 62 1013.1
20260831011804 73 156 6.0 9.0 0.00 0.22 0.11 60 1013.0
20260831011305 75 163 7.0 14.0 0.00 0.28 0.11 56 1013.0
20260831010805 76 166 6.0 14.0 0.00 0.28 0.11 50 1013.0
20260831010304 76 179 5.0 7.0 0.00 0.28 0.11 46 1012.9
20260831005306 76 189 4.0 6.0 0.00 0.28 0.11 48 1012.9
20260831004804 77 203 4.0 7.0 0.00 0.28 0.11 51 1012.9
20260831004305 78 185 6.0 7.0 0.00 0.28 0.11 48 1012.9
20260831003305 79 326 5.0 8.0 0.00 0.28 0.11 44 1012.9
20260831002306 79 19 3.0 9.0 0.00 0.28 0.11 44 1012.9
20260831001304 79 50 4.0 7.0 0.00 0.28 0.11 44 1012.6
20260831000805 79 37 3.0 8.0 0.00 0.28 0.11 44 1012.6
20260830235805 79 347 8.0 12.0 0.00 0.28 0.11 45 1012.7
20260830235306 79 10 3.0 7.0 0.00 0.28 0.11 48 1012.7
20260830234804 78 22 4.0 7.0 0.00 0.28 0.11 48 1012.7
20260830234304 78 356 3.0 7.0 0.00 0.28 0.11 46 1012.7
20260830233805 77 203 1.0 2.0 0.00 0.28 0.11 44 1012.7
20260830233304 77 178 0.0 2.0 0.00 0.28 0.11 43 1012.7
20260830232306 77 178 0.0 0.0 0.01 0.28 0.11 42 1012.7
20260830231805 76 178 0.0 1.0 0.02 0.28 0.11 42 1012.6
20260830231304 76 178 0.0 2.0 0.02 0.28 0.11 44 1012.8
20260830230305 75 200 2.0 3.0 0.02 0.28 0.11 53 1013.2
20260830225306 76 210 3.0 5.0 0.02 0.28 0.11 52 1013.2
20260830224805 75 251 3.0 5.0 0.02 0.28 0.11 52 1012.9
20260830224304 75 267 2.0 3.0 0.02 0.28 0.11 56 1012.8
20260830223805 74 326 3.0 5.0 0.02 0.28 0.11 59 1013.5
20260830221804 75 231 6.0 8.0 0.00 0.26 0.09 53 1013.5
20260830221304 76 244 4.0 8.0 0.00 0.26 0.09 51 1013.5
20260830220804 76 274 1.0 2.0 0.00 0.26 0.09 48 1012.8
20260830215804 76 180 1.0 6.0 0.00 0.26 0.09 50 1012.8
20260830215305 76 157 3.0 6.0 0.00 0.26 0.09 51 1012.9
20260830214805 76 164 2.0 6.0 0.00 0.26 0.09 51 1012.9
20260830214304 77 152 2.0 3.0 0.00 0.26 0.09 50 1012.9
20260830213805 77 143 6.0 8.0 0.00 0.26 0.09 47 1013.1
20260830213304 77 167 4.0 7.0 0.00 0.26 0.09 49 1013.3
20260830212805 77 158 5.0 10.0 0.00 0.26 0.09 48 1013.3
20260830212306 77 169 6.0 13.0 0.00 0.26 0.09 48 1013.3
20260830211805 78 126 8.0 13.0 0.00 0.26 0.09 48 1013.3
20260830211304 78 137 6.0 10.0 0.00 0.26 0.09 53 1013.3
20260830205805 78 155 7.0 12.0 0.00 0.26 0.09 54 1013.9
20260830205306 78 164 6.0 12.0 0.00 0.26 0.09 54 1013.9
20260830204805 78 129 5.0 12.0 0.00 0.26 0.09 55 1014.1
20260830204304 77 146 6.0 12.0 0.00 0.26 0.09 56 1014.1
20260830203804 77 124 7.0 14.0 0.00 0.26 0.09 56 1014.4
20260830203305 77 133 7.0 13.0 0.00 0.26 0.09 55 1014.4
20260830202804 77 121 7.0 12.0 0.00 0.26 0.09 56 1014.4
20260830202306 77 108 7.0 12.0 0.00 0.26 0.09 56 1014.4
20260830201805 77 156 8.0 12.0 0.00 0.26 0.09 56 1014.4
20260830201305 77 165 6.0 9.0 0.00 0.26 0.09 57 1014.7
20260830200805 76 158 6.0 10.0 0.00 0.26 0.09 57 1014.3
20260830200305 76 136 5.0 9.0 0.00 0.26 0.09 57 1014.3
20260830195804 76 155 4.0 10.0 0.00 0.26 0.09 57 1014.3
20260830195305 76 140 6.0 9.0 0.00 0.26 0.09 56 1014.3
20260830194804 76 128 5.0 9.0 0.00 0.26 0.09 55 1014.5
20260830193804 76 116 5.0 12.0 0.00 0.26 0.09 56 1014.5
20260830193305 76 147 6.0 13.0 0.00 0.26 0.09 56 1014.5
20260830192804 76 146 6.0 12.0 0.00 0.26 0.09 56 1014.7
20260830192305 76 146 7.0 12.0 0.00 0.26 0.09 56 1014.9
20260830191805 76 153 5.0 10.0 0.00 0.26 0.09 57 1014.9
20260830191304 76 164 7.0 12.0 0.00 0.26 0.09 58 1015.2
20260830190804 76 145 5.0 8.0 0.00 0.26 0.09 60 1014.9
20260830190304 75 159 6.0 9.0 0.00 0.26 0.09 60 1015.1
20260830185805 75 170 6.0 9.0 0.00 0.26 0.09 60 1015.1
20260830185306 75 157 5.0 10.0 0.00 0.26 0.09 59 1015.1
20260830184804 74 137 4.0 9.0 0.00 0.26 0.09 61 1015.1
20260830183804 74 169 5.0 8.0 0.00 0.26 0.09 61 1015.2
20260830183305 74 148 6.0 10.0 0.00 0.26 0.09 62 1015.1
20260830182805 73 173 6.0 8.0 0.00 0.26 0.09 61 1015.1
20260830182306 73 150 6.0 9.0 0.00 0.26 0.09 61 1015.1
20260830181804 74 165 3.0 9.0 0.00 0.26 0.09 62 1015.1
20260830181305 73 164 6.0 8.0 0.00 0.26 0.09 60 1015.1
20260830180805 74 166 6.0 9.0 0.00 0.26 0.09 60 1015.1
20260830180304 73 172 4.0 8.0 0.00 0.26 0.09 60 1015.1
20260830175805 73 166 5.0 12.0 0.00 0.26 0.09 61 1015.0
20260830175306 73 175 7.0 10.0 0.00 0.26 0.09 60 1015.0
20260830174804 73 146 4.0 12.0 0.00 0.26 0.09 63 1015.0
20260830174304 72 165 7.0 10.0 0.00 0.26 0.09 62 1015.0
20260830173804 72 186 5.0 9.0 0.00 0.26 0.09 63 1015.0
20260830172804 72 135 5.0 7.0 0.00 0.26 0.09 65 1015.2
20260830172306 71 161 5.0 7.0 0.00 0.26 0.09 68 1015.2
20260830171804 71 173 3.0 6.0 0.00 0.43 0.09 70 1015.2
20260830170805 70 123 3.0 5.0 0.00 0.44 0.09 71 1015.2
20260830165805 69 142 3.0 6.0 0.00 0.44 0.09 72 1015.1
20260830165306 69 139 3.0 6.0 0.00 0.44 0.09 73 1015.1
20260830164804 69 176 3.0 7.0 0.00 0.44 0.09 75 1015.1
20260830164304 68 156 1.0 6.0 0.00 0.44 0.09 76 1015.2
20260830163804 68 159 2.0 6.0 0.00 0.44 0.09 77 1015.2
20260830163304 68 148 2.0 5.0 0.00 0.44 0.09 79 1015.1
20260830162804 67 177 1.0 3.0 0.00 0.44 0.09 80 1015.1
20260830162306 67 241 2.0 3.0 0.00 0.44 0.09 80 1015.1
20260830161804 67 241 2.0 5.0 0.00 0.44 0.09 81 1015.1
20260830161304 66 225 2.0 3.0 0.00 0.44 0.09 82 1014.9
20260830160804 66 182 2.0 3.0 0.00 0.44 0.09 82 1014.9
20260830155804 65 184 0.0 2.0 0.00 0.44 0.09 83 1014.9
20260830155306 65 189 1.0 3.0 0.00 0.44 0.09 83 1014.9
20260830154804 65 193 2.0 3.0 0.00 0.44 0.09 84 1014.9
20260830154304 65 277 1.0 3.0 0.00 0.44 0.09 84 1014.9
20260830153304 65 181 2.0 3.0 0.00 0.44 0.09 85 1014.8
20260830152804 65 170 3.0 5.0 0.00 0.44 0.09 85 1014.8
20260830152306 65 188 3.0 5.0 0.00 0.44 0.09 85 1014.8
20260830151804 64 196 3.0 5.0 0.00 0.44 0.09 85 1015.0
20260830151304 65 240 2.0 5.0 0.00 0.44 0.09 85 1015.0
20260830150804 64 256 3.0 5.0 0.00 0.44 0.09 86 1015.0
20260830150304 64 240 3.0 3.0 0.00 0.44 0.09 87 1014.5
20260830145804 64 229 1.0 3.0 0.00 0.44 0.09 88 1014.5
20260830145306 63 213 0.0 3.0 0.00 0.44 0.09 89 1014.5
20260830144804 63 223 3.0 5.0 0.00 0.44 0.09 88 1014.5
20260830144304 63 204 1.0 3.0 0.00 0.44 0.09 89 1014.5
20260830143805 62 155 0.0 0.0 0.00 0.44 0.09 89 1014.5
20260830143304 62 155 0.0 0.0 0.00 0.44 0.09 89 1014.5
20260830142804 62 155 1.0 3.0 0.06 0.44 0.09 89 1014.5
20260830142306 62 147 0.0 1.0 0.06 0.44 0.09 89 1014.5
20260830141804 62 271 1.0 5.0 0.06 0.44 0.09 89 1014.6
20260830141304 62 86 5.0 8.0 0.06 0.44 0.09 89 1014.6
20260830140304 62 101 3.0 6.0 0.06 0.44 0.09 88 1014.6
20260830135804 62 97 3.0 5.0 0.06 0.44 0.09 88 1014.6
20260830135306 62 51 0.0 0.0 0.06 0.44 0.09 88 1014.2
20260830134804 62 51 0.0 2.0 0.06 0.44 0.09 88 1014.2
20260830134304 62 51 1.0 2.0 0.06 0.44 0.09 88 1014.2
20260830133804 62 164 2.0 5.0 0.06 0.44 0.09 88 1014.3
20260830133304 63 164 0.0 3.0 0.06 0.44 0.09 88 1014.8
20260830132804 63 219 6.0 7.0 0.00 0.38 0.03 89 1014.8
20260830132306 62 276 3.0 5.0 0.00 0.38 0.03 88 1013.7
20260830131804 62 303 3.0 3.0 0.00 0.38 0.03 88 1013.7
20260830131304 62 136 0.0 3.0 0.00 0.38 0.03 88 1013.7
20260830130304 62 188 2.0 3.0 0.00 0.38 0.03 88 1013.7
20260830125804 62 118 0.0 0.0 0.00 0.38 0.03 88 1013.3
20260830125306 62 84 0.0 0.0 0.00 0.38 0.03 88 1013.3
20260830124304 62 84 0.0 0.0 0.00 0.38 0.03 88 1013.3
20260830123804 62 84 0.0 2.0 0.00 0.38 0.03 88 1013.3
20260830123304 62 74 1.0 2.0 0.00 0.38 0.03 88 1013.3
20260830122804 62 355 0.0 0.0 0.00 0.38 0.03 88 1013.3
20260830122306 62 355 0.0 2.0 0.00 0.38 0.03 88 1013.3
20260830121804 62 355 0.0 0.0 0.00 0.38 0.03 88 1013.3
20260830121304 62 355 0.0 0.0 0.00 0.38 0.03 87 1013.3
20260830120304 62 355 0.0 0.0 0.00 0.38 0.03 88 1013.3
20260830115804 62 355 0.0 0.0 0.00 0.38 0.03 88 1013.3
20260830115306 62 355 0.0 3.0 0.00 0.38 0.03 88 1013.3
20260830114804 62 355 1.0 3.0 0.00 0.38 0.03 88 1013.4
20260830114304 62 355 2.0 3.0 0.00 0.38 0.03 88 1013.4
20260830113804 62 355 1.0 3.0 0.00 0.38 0.03 88 1013.2
20260830113304 62 316 2.0 3.0 0.00 0.38 0.03 88 1013.2
20260830112306 62 292 3.0 5.0 0.00 0.38 0.03 88 1013.2
20260830111804 62 349 0.0 0.0 0.00 0.38 0.03 87 1012.8
20260830111304 62 63 0.0 0.0 0.00 0.38 0.03 87 1012.8
20260830110804 62 63 0.0 0.0 0.00 0.38 0.03 87 1012.9
20260830105803 62 63 1.0 3.0 0.00 0.38 0.03 87 1013.1
20260830105306 62 62 3.0 3.0 0.00 0.38 0.03 87 1013.1
20260830104804 62 72 0.0 2.0 0.00 0.38 0.03 88 1013.0
20260830104304 62 68 3.0 5.0 0.00 0.38 0.03 88 1013.0
20260830103804 62 57 2.0 5.0 0.00 0.38 0.03 87 1013.0
20260830103304 62 6 2.0 3.0 0.00 0.38 0.03 88 1013.2
20260830102804 63 52 2.0 3.0 0.00 0.38 0.03 88 1013.2
20260830102306 63 304 1.0 3.0 0.00 0.38 0.03 88 1013.2
20260830101804 63 304 0.0 0.0 0.00 0.38 0.03 88 1013.0
20260830101304 63 304 0.0 2.0 0.00 0.38 0.03 88 1013.0
20260830100804 63 304 1.0 3.0 0.00 0.38 0.03 88 1013.0
20260830100304 63 304 0.0 3.0 0.00 0.38 0.03 88 1012.9
20260830095804 63 178 0.0 0.0 0.00 0.38 0.03 88 1012.9
20260830094804 63 178 1.0 5.0 0.00 0.38 0.03 88 1012.9
20260830094304 64 194 3.0 6.0 0.02 0.38 0.03 88 1012.9
20260830093803 64 213 1.0 3.0 0.02 0.38 0.03 88 1012.9
20260830093304 64 150 0.0 0.0 0.02 0.38 0.03 88 1012.9
20260830092804 64 150 0.0 0.0 0.02 0.38 0.03 88 1013.2
20260830092306 64 150 0.0 0.0 0.02 0.39 0.03 88 1013.1
20260830091804 64 150 0.0 0.0 0.02 0.39 0.03 87 1013.1
20260830090804 64 150 0.0 0.0 0.02 0.39 0.03 87 1013.1
20260830090304 64 150 0.0 2.0 0.02 0.39 0.03 87 1013.1
20260830085306 64 103 0.0 5.0 0.02 0.39 0.03 86 1013.1
20260830084804 64 142 3.0 5.0 0.02 0.39 0.03 86 1013.5
20260830084304 64 255 1.0 3.0 0.00 0.37 0.01 86 1013.5
20260830083804 64 313 1.0 3.0 0.00 0.37 0.01 86 1013.5
20260830083304 64 336 2.0 3.0 0.00 0.37 0.01 86 1013.5
20260830082805 64 103 0.0 2.0 0.00 0.37 0.01 86 1013.5